www.pogodaiklimat.ru
ПОГОДА в Нейве
Время
(UTC), дата
12 11.11
15 11.11
18 11.11
21 11.11
00 12.11
03 12.11
12 12.11
15 12.11
18 12.11
21 12.11
00 13.11
03 13.11
12 13.11
15 13.11
18 13.11
21 13.11
00 14.11
03 14.11
12 14.11
15 14.11
18 14.11
21 14.11
03 15.11
12 15.11
15 15.11
18 15.11
21 15.11
00 16.11
03 16.11
12 16.11
15 16.11
18 16.11
21 16.11
00 17.11
03 17.11
12 17.11
15 17.11
18 17.11
21 17.11
00 18.11
Ветер
(напр.,м/с)
Видим. Явления Облачность Т
(С)
Тd
(С)
f
(%)
Тe
(С)
Тes
(С)
Комфортность P
(гПа)
Po
(гПа)
Тmin
(С)
Tmax
(С)
R
(мм)
R24
(мм)
S
(см)
Ю 2 2000 м морось 10/5 150 м
[St As op]
+21.7 +21.6 99 +28 +28 душно 1010.8 960.1 +21.8 50
Ю 2 6000 м в посл. час морось 10/5 210 м
[St Ac As]
+23.2 +22.2 94 +32 +34 очень
душно
1011.7 961.2
СЗ 1 20 км {морось} 6/3 800 м
[Cu med, cong Ac trans]
+28.5 +21.5 66 +36 +47 очень
душно
1007.5 958.1 8
СЗ 3 20 км 3/1 1050 м
[Cu med, cong Ac trans Cs]
+30.4 +21.2 58 +38 +41 очень
душно
1003.2 954.3
В 1 20 км 8/1 900 м
[Cu med, cong Ac trans Cs]
+27.8 +21.8 70 +36 +36 очень
душно
1005.4 956.0 +30.2
штиль 0 20 км 9/1 800 м
[Cu med, cong Ac As]
+25.8 +23.4 87 +35 +35 очень
душно
1008.4 958.5
штиль 0 15 км слаб. морось 10/4 180 м
[St Ac As]
+23.8 +22.9 95 +32 +32 очень
душно
1008.7 958.5 +21.8 8
Ю 3 13 км осадки на расстоянии {морось} 10/5 700 м
[St Ac As]
+25.1 +23.4 90 +34 +36 очень
душно
1010.4 960.3
Ю 3 18 км {морось} 9/9 800 м
[]
+29.1 +22.6 68 +38 +40 очень
душно
1006.1 956.8 0.4
Ю 4 18 км 9/3 900 м
[Cu med, cong Ac As Cs]
+28.4 +21.4 66 +36 +37 очень
душно
1003.7 954.5
С 3 12 км 9/1 450 м
[Cu hum Ac As]
+27.0 +23.0 79 +36 +36 очень
душно
1005.9 956.3 +29.0
нст 1 12 км 8/1 600 м
[Cu hum Ac As]
+25.4 +22.4 83 +33 +33 очень
душно
1008.8 958.8
СВ 4 1000 м дождь 10/10 210 м
[St]
+22.3 +22.3 100 +30 +30 очень
душно
1010.5 959.9 +22.8 9
СВ 2 5000 м морось {дождь} 10/10 120 м
[St]
+22.4 +22.4 100 +30 +30 очень
душно
1012.8 962.1
С 2 9000 м в посл. час морось {дождь} 10/6 450 м
[St Ac As]
+24.3 +22.1 88 +32 +34 очень
душно
1010.2 960.0 13
З 1 18 км 8/3 300 м
[St Ac trans Cs]
+26.9 +20.0 66 +33 +35 очень
душно
1006.5 956.9
В 1 18 км 1/1 700 м
[Cu hum Ac trans Cs]
+24.7 +20.5 77 +31 +31 очень
душно
1007.5 957.5 +27.6
штиль 0 18 км 5/1 500 м
[Cu hum Ac As]
+23.1 +21.5 91 +31 +31 очень
душно
1010.8 960.4
СВ 2 20 км 9/1 120 м
[St Ac As]
+22.9 +22.2 96 +31 +32 очень
душно
1011.9 961.3 +22.3 13
С 2 16 км 8/4 500 м
[Cu hum Ac trans]
+26.3 +22.1 78 +34 +39 очень
душно
1001.2 962.5
С 4 18 км осадки на расстоянии 5/4 750 м
[Cu med, cong Ac trans Cs]
+30.5 +21.5 59 +39 +45 очень
душно
1008.6 959.4
СВ 1 18 км 8/1 1050 м
[Cu med, cong As op]
+28.7 +21.2 64 +36 +38 очень
душно
1005.6 956.3
Ю 2 18 км 5/1 600 м
[Cu hum Ac trans]
+25.0 +23.0 89 +33 +33 очень
душно
1009.8 959.7
С 2 20 км 9/1 1200 м
[Cu hum Ac As Cs]
+24.4 +22.5 89 +32 +32 очень
душно
1010.5 960.3 +22.8
С 4 16 км 9/4 800 м
[Cu med, cong Ac As]
+27.6 +21.9 71 +36 +38 очень
душно
1010.6 960.9
С 5 15 км осадки на расстоянии 9/4 900 м
[Cu med, cong As trans Cs]
+31.4 +21.1 54 +39 +42 очень
душно
1006.6 957.7
С 4 20 км 9/1 1200 м
[Cu med, cong Ac trans Cs]
+31.1 +20.2 52 +38 +39 очень
душно
1003.9 955.1
СВ 2 20 км зарница 6/1 900 м
[Cu med, cong Ac trans Cs]
+27.8 +21.2 67 +35 +35 очень
душно
1006.1 956.6 +31.6
СВ 2 20 км 4/1 400 м
[Cu hum Ac trans]
+27.5 +21.8 71 +35 +35 очень
душно
1008.5 958.9
С 2 20 км 10/1 1350 м
[Cu hum Ac As]
+25.1 +22.0 83 +32 +33 очень
душно
1008.6 958.6 +24.0
С 3 16 км осадки на расстоянии 10/1 700 м
[Cu hum Ac As Cs]
+28.1 +21.9 69 +36 +41 очень
душно
1009.4 959.9
С 3 20 км 9/4 1000 м
[Cu med, cong Ac trans Cs]
+30.2 +21.3 59 +38 +43 очень
душно
1005.9 956.9
С 2 20 км 9/1 1200 м
[Cu med, cong Ac As Cs]
+30.2 +20.5 56 +37 +39 очень
душно
1003.4 954.5
СЗ 1 2000 м 4/1 800 м
[Cu hum Ac As]
+26.7 +22.2 76 +35 +35 очень
душно
1005.8 956.2 +30.8
штиль 0 20 км 5/1 400 м
[Cu hum Ac As]
+26.6 +22.4 78 +35 +35 очень
душно
1008.1 958.3
С 1 15 км 8/3 1050 м
[Cu med, cong Ac trans]
+24.9 +23.3 91 +33 +34 очень
душно
1007.9 957.9 +24.4 0.2
СЗ 4 12 км осадки на расстоянии 9/4 800 м
[Cu med, cong Ac As]
+27.0 +23.1 79 +36 +38 очень
душно
1008.3 958.6
С 3 20 км 4/3 1050 м
[Cu med, cong Ac As]
+31.6 +20.9 53 +39 +48 очень
душно
1004.1 955.3
С 5 20 км осадки на расстоянии 6/1 1200 м
[Cu med, cong Ac As Cs]
+32.6 +20.4 49 +39 +41 очень
душно
1001.6 953.2
СВ 2 20 км 4/1 400 м
[Cu hum Ac As]
+29.0 +21.4 64 +37 +37 очень
душно
1004.1 954.9 +32.8
Местоположение метеостанции Нейва (Колумбия): широта 2.97 долгота -75.30 высота над уровнем моря 443 м.
В архиве по умолчанию представлена погода в Нейве за последнюю неделю. Архивные данные за месяц целиком и за предыдущие месяцы, начиная с января 2011 года, Вы можете получить, выбрав интересующий диапазон дат из раскрывающегося списка и нажав кнопку "Найти!".
*Определитесь, кто Вы:
Внимание! Время в таблицах - всемирное. Для получения местного времени необходимо прибавить поправку, которая равна -5 ч.
Смотрите также архив погоды в соседних городах и на ближайших метеорологических станциях:
Партнеры нашего сайта:      
Пояснения к столбцам:
  • Ветер - указаны скорость ветра в м/с - средняя за 10 мин, порывы в срок и между сроками (в фигурных скобках) и направление, откуда дует ветер: С - северный,
  • СВ - северо-восточный, В - восточный, ЮВ - юго-восточный, Ю - южный, ЮЗ - юго-западный, З - западный, СЗ - северо-западный.
  • Видимость - горизонтальная дальность видимости в метрах или километрах. При видимости от 1 до 10 км при отсутствии осадков обычно наблюдается дымка, при ухудшении видимости до 1 км и менее - туман. В сухую погоду видимость может ухудшаться дымом, пылью или мглою.
  • Явления - указаны атмосферные явления, наблюдавшиеся в срок или в последний час перед сроком; фигурными скобками обозначены явления, наблюдавшиеся между сроками (за 1-3 часа до срока); квадратными скобками обозначены град или гололедные отложения с указанием их диаметра в мм.
  • Облачность - указаны через наклонную черту общая и нижняя облачность в баллах и высота нижней границы облаков в метрах; квадратными скобками обозначены формы облаков: Ci - перистые, Cs - перисто-слоистые, Cc - перисто-кучевые, Ac - высококучевые, As - высокослоистые, Sc - слоисто-кучевые, Ns - слоисто-дождевые, Cu - кучевые, Cb - кучево-дождевые. Подробнее классификацию облаков см. в Атласе облаков (PDF).
  • T - Температура воздуха - температура, измеренная на высоте 2 м над землей.
  • Td - Температура точки росы - температура, при понижении до которой содержащийся в воздухе водяной пар достигнет насыщения.
  • f - Относительная влажность воздуха - влажноcть воздуха, измеренная на высоте 2 м над землей.
  • Te - Эффективная температура - температура, которую ощущает одетый по сезону человек в тени. Характеристика душности погоды. При расчете учитывается влияние влажности воздуха и скорости ветра на теплоощущения человека.
  • Tes - Эффективная температура на солнце - температура, которую ощущает человек, с поправкой на солнечный нагрев. Характеристика знойности погоды. Зависит от высоты солнца над горизонтом, облачности и скорости ветра. Ночью, в пасмурную погоду, а также при ветре 12 м/с и более поправка равна нулю.
  • P - Атмосферное давление - приведенное к уровню моря атмосферное давление.
  • Po - Атмосферное давление - измеренное на уровне метеостанции атмосферное давление.
  • Tmin - Минимальная температура - минимум температуры воздуха на высоте 2 м над землей.
  • Tmax - Максимальная температура - максимум температуры воздуха на высоте 2 м над землей.
  • R - Количество осадков - Количество выпавших осадков за период времени, мм. При наведении курсора мыши на число - период времени, за который выпало указанное количество осадков.
  • R24 - Количество осадков - Количество выпавших осадков за 24 часа, мм.
  • S - Снежный покров - Высота снежного покрова, см. При наведении курсора мыши на число - состояние снежного покрова и степень покрытия местности в баллах.